Helicity
87 116 92 64 99 73 23 4 -2 -6 14 22 36 58 29 62 53 27 -32 -37 -25 -19 -17 -19 -18 1 -4 -1 -6 -0 3 7 13 10 9 -2 -0 -0 1 -4 -9 -7 -2 1 12 16 22 25 26
71 41 124 91 20 12 63 15 47 43 33 12 23 23 33 38 -69 22 6 -26 -23 -11 -16 -14 -11 -5 4 1 -5 -4 -0 1 -1 -0 2 3 -0 -4 6 5 4 1 6 15 17 17 24 31 32
87 60 60 13 15 35 16 26 16 19 30 38 17 55 33 -11 37 -15 -0 -16 -2 -10 -19 -16 -10 -2 -4 -4 -5 -6 -3 -1 -7 -15 -16 -5 -4 -3 4 10 13 16 24 28 32 36 43 39 35
67 97 30 71 -6 38 20 19 1 -4 8 44 39 4 40 62 -5 -5 -15 -4 -4 -15 -5 2 -4 -3 -0 -3 -5 -7 -10 -5 -6 -15 -16 -7 -10 1 8 19 30 31 34 34 40 47 41 36 36
95 91 -2 -7 32 54 23 17 -1 7 17 2 34 27 46 24 -8 6 -21 14 13 -15 -7 6 2 1 -3 -9 -5 -4 -12 -6 -7 -8 -9 -5 2 10 19 30 43 44 46 47 48 43 35 33 40
93 39 35 3 31 29 8 -7 8 12 10 -2 42 25 6 -4 30 -2 -24 41 -5 7 -17 -9 -11 -0 -1 -6 -4 2 1 -5 -3 -2 -2 -0 4 18 33 39 46 47 54 52 49 48 45 40 41
151 10 34 26 58 8 24 -4 28 2 -4 31 16 56 23 19 11 -8 -18 5 24 17 -6 -5 9 7 14 11 16 16 -9 -12 -5 2 8 13 19 29 46 48 44 49 53 47 39 42 51 45 28
84 -3 3 47 5 26 12 40 2 39 38 5 11 -6 44 28 6 47 24 1 7 -10 1 2 -1 -12 5 17 15 14 10 2 1 -1 17 32 41 55 67 52 47 33 33 40 36 51 55 63 76
102 4 -9 4 14 39 -10 19 24 -3 1 21 15 28 97 47 43 88 22 65 13 24 15 28 17 -2 42 -10 6 16 -9 14 25 25 32 80 49 88 58 14 27 51 40 42 47 69 108 150 77
39 40 33 -3 1 21 -2 22 -5 11 19 45 21 54 69 70 71 91 73 106 20 39 54 41 30 37 11 23 22 16 9 26 16 -1 12 45 23 13 40 55 77 64 72 61 94 90 140 110 89
6 -8 15 -4 57 8 27 26 8 -1 20 59 49 50 63 77 47 64 74 65 44 39 58 39 73 60 50 38 54 53 37 57 26 11 31 4 52 32 56 58 66 73 51 89 81 32 -14 24 -54
26 27 22 -8 45 -4 -9 -1 29 18 2 5 46 54 61 61 37 45 46 21 50 61 70 55 69 72 54 42 61 65 83 48 20 10 15 23 -1 46 38 7 12 18 24 11 -7 -16 31 9 177
42 -7 20 9 14 5 20 11 41 35 1 1 64 69 57 59 29 23 79 35 54 59 54 95 52 79 59 53 58 67 37 -28 43 30 -6 25 15 12 -3 26 1 12 34 23 -3 14 2 7 35
-31 9 8 6 -1 -3 28 13 19 75 55 51 67 70 50 11 33 53 61 71 71 49 68 66 47 105 43 39 36 51 24 -55 24 35 56 8 76 24 40 -17 32 -9 -2 17 -1 38 14 24 23
14 26 30 -12 5 -6 30 32 20 80 76 68 62 61 66 33 12 17 55 43 110 53 64 109 43 86 25 24 32 24 -9 -19 -18 7 47 36 29 6 78 1 21 21 11 13 13 8 4 35 20
45 2 -24 34 -2 31 38 24 32 67 62 73 77 75 80 77 55 38 -1 6 127 24 123 110 51 60 29 9 35 10 -13 -23 -20 -11 -12 12 17 35 20 -3 4 16 33 4 11 4 -14 29 9
28 10 8 46 -6 -5 8 24 38 49 57 68 70 84 87 82 61 59 62 8 81 111 134 92 83 41 38 21 22 18 28 -16 -19 9 45 32 30 11 27 33 36 -1 9 -0 14 9 -9 21 31
31 10 -5 10 45 1 14 31 24 76 39 31 70 91 81 105 71 60 41 32 22 82 74 52 71 61 39 32 22 17 44 6 14 59 48 41 -5 24 18 31 26 15 2 22 17 18 6 27 3
-4 -12 14 39 46 -3 -1 12 -10 -19 57 35 26 79 103 56 66 55 43 52 40 45 81 69 81 69 54 40 35 24 36 29 16 29 73 46 -32 45 43 14 23 -2 -2 14 20 22 -15 32 12
2 5 7 40 83 4 1 6 -0 22 35 57 41 38 89 90 60 63 81 79 45 55 55 61 59 92 70 36 18 22 27 14 13 17 64 18 20 4 23 38 48 30 39 4 11 14 7 8 10
24 -1 38 23 37 56 18 100 69 32 24 -1 50 23 69 95 90 77 94 85 65 84 70 57 62 98 65 31 26 15 24 41 36 20 71 4 16 -19 26 48 50 45 27 26 12 12 21 2 5
24 106 19 47 5 6 42 12 16 53 13 42 21 72 32 89 182 63 55 89 109 65 72 72 52 68 69 45 63 64 42 49 57 43 17 55 25 -20 -9 12 38 31 31 28 17 10 21 7 6
74 68 4 39 -5 -11 1 21 37 78 7 25 44 24 42 48 125 130 104 73 75 43 80 91 84 46 59 75 42 81 57 38 65 73 14 26 60 32 27 22 32 27 16 14 8 20 20 10 8
2 38 3 10 7 -7 53 2 -5 130 6 24 33 50 -4 14 56 91 134 120 62 20 101 63 110 98 67 83 69 111 76 6 73 69 104 28 55 37 43 38 19 11 19 16 14 9 11 5 -1
37 -4 -6 49 9 57 51 -3 -17 27 48 24 22 44 47 8 24 61 57 119 90 3 94 84 150 100 101 106 94 76 81 51 54 47 34 32 -42 -7 75 46 25 10 16 24 17 12 7 6 -1
45 -24 -47 64 19 68 9 -6 125 -8 21 24 9 41 37 23 11 30 75 53 122 75 82 84 92 92 109 117 95 78 55 48 55 40 28 15 -27 32 85 20 13 15 16 10 9 9 -6 12 3
50 24 -16 18 20 27 39 102 92 38 4 16 14 30 55 28 27 41 45 64 58 251 84 48 90 87 81 99 81 91 61 24 59 71 60 18 -10 53 88 56 11 21 16 15 15 7 24 12 -12
39 21 -0 27 22 40 26 9 61 -19 43 17 11 10 46 78 71 87 100 108 90 179 103 41 68 83 58 59 81 76 70 47 17 79 66 62 25 63 57 51 39 34 15 37 43 35 21 8 -20
48 15 10 65 36 44 -18 84 99 29 -8 35 5 22 13 63 127 88 118 130 105 111 108 85 74 97 79 59 97 68 72 72 54 104 83 73 68 49 75 58 44 46 51 70 51 38 18 10 30
37 38 4 14 5 21 29 42 30 7 14 21 17 35 35 30 66 123 83 98 108 109 116 154 115 101 89 98 111 108 82 86 91 98 98 89 88 72 58 53 53 44 45 39 24 37 15 15 2
Wind_Speed
35 33 29 29 25 18 20 40 15 19 15 10 12 26 15 7 19 43 62 62 58 57 56 56 53 58 60 60 59 50 46 45 40 38 33 31 25 20 18 18 16 16 15 14 16 15 19 24 27
32 29 34 27 20 27 22 18 22 22 17 17 12 16 11 13 41 61 56 63 61 56 59 54 54 56 59 59 57 51 45 41 39 36 33 26 21 19 16 16 16 16 15 15 17 19 22 22 22
31 30 32 18 22 20 29 26 24 21 18 23 16 14 16 27 51 56 57 61 55 51 49 48 51 55 57 57 55 50 49 42 38 34 30 25 21 19 17 17 17 16 16 17 19 19 19 18 15
30 32 27 20 32 26 26 24 23 26 22 23 20 24 23 30 38 54 61 58 53 48 41 45 49 52 55 55 54 49 44 40 33 29 26 23 21 20 19 19 18 18 18 18 17 17 15 13 13
36 34 17 19 24 24 24 21 22 25 21 20 25 28 30 10 51 52 54 50 49 50 36 41 48 48 50 51 51 48 43 37 32 27 24 22 22 21 20 20 19 20 18 16 14 12 11 11 11
37 30 17 16 22 20 20 22 23 23 23 25 32 37 31 41 46 50 51 43 47 43 49 49 49 46 46 47 42 28 22 30 29 26 24 24 23 23 22 23 21 19 17 14 11 9 9 10 15
34 19 39 21 19 20 20 22 25 25 24 24 24 28 29 41 44 45 41 39 39 42 45 44 42 42 36 34 29 26 37 32 28 27 26 26 26 28 27 26 23 21 17 13 11 10 9 14 20
29 22 16 20 18 18 23 22 20 24 22 21 21 27 36 37 40 34 33 38 32 38 38 45 49 43 38 33 27 36 42 38 34 29 29 31 34 35 32 30 24 21 17 15 14 13 13 16 18
31 27 17 16 17 19 17 28 25 22 24 26 27 22 35 42 37 31 36 25 33 31 36 34 34 31 14 44 39 21 30 38 37 37 34 33 36 35 33 26 21 23 24 24 25 20 13 10 16
30 26 16 15 18 23 20 26 22 29 28 30 27 29 39 41 36 38 35 31 34 32 29 31 31 24 28 26 24 37 25 33 34 25 31 33 31 26 31 35 33 31 27 22 19 15 14 9 31
23 35 26 31 15 15 26 31 24 16 21 31 32 37 40 39 38 36 34 34 33 33 28 31 29 24 26 22 18 21 29 36 29 34 38 27 34 33 31 31 27 30 29 22 17 27 5 14 25
28 25 26 28 36 37 32 30 41 21 25 23 36 38 41 38 40 37 36 36 34 33 31 34 33 29 28 23 20 16 17 41 39 30 38 35 29 31 31 28 26 40 19 18 31 22 12 7 32
29 38 35 34 40 37 20 22 25 31 33 31 34 35 36 34 34 35 32 33 30 31 30 24 32 29 27 24 23 21 18 24 42 37 40 35 34 33 30 29 27 30 27 29 26 11 6 10 11
36 33 34 38 38 35 31 32 28 30 31 33 35 34 33 29 27 29 26 27 29 31 29 29 33 26 32 30 27 27 26 35 40 39 34 38 38 31 33 32 32 30 30 22 20 16 36 22 28
31 37 36 35 30 31 31 29 30 29 30 31 33 32 33 32 23 19 23 22 24 28 25 26 26 22 28 27 24 26 27 38 42 47 43 40 42 33 36 32 34 31 25 20 19 21 17 32 26
32 32 33 31 31 27 31 27 27 27 30 29 28 29 30 29 26 19 18 20 19 19 18 19 19 21 22 21 18 19 21 36 34 11 28 33 40 39 41 37 31 29 27 33 22 22 26 20 32
28 24 25 25 28 29 29 33 29 23 23 24 27 27 27 29 27 21 18 19 16 12 12 11 13 16 16 13 13 17 15 26 39 15 14 16 38 40 44 37 30 32 30 31 25 24 21 21 40
41 21 23 24 26 22 30 26 18 16 19 21 20 24 31 30 31 26 19 20 17 22 20 18 13 15 15 11 9 9 5 10 8 17 14 27 12 39 43 40 33 36 33 29 28 21 21 23 26
26 17 17 24 29 29 12 26 28 13 14 16 18 21 22 27 29 31 25 17 18 23 23 25 23 22 23 19 15 16 12 10 14 38 9 28 22 41 45 36 42 38 35 35 32 27 23 26 33
11 10 20 23 30 26 14 28 38 8 10 11 13 17 21 26 29 27 28 24 23 28 24 26 28 24 25 25 22 20 19 14 16 7 10 7 56 50 49 46 43 35 40 35 36 31 27 28 29
7 17 28 44 29 7 30 26 8 7 7 8 4 12 19 26 29 29 29 31 26 25 27 23 26 25 29 28 22 18 14 6 9 22 10 9 17 58 53 51 50 42 40 39 36 36 33 33 32
23 24 27 33 32 41 23 53 26 19 22 18 16 4 14 23 29 33 36 31 29 27 26 22 24 25 25 27 20 19 22 18 17 16 19 10 5 37 61 56 50 44 47 44 42 36 38 37 36
24 26 34 33 34 26 31 28 31 21 18 25 32 43 4 16 28 32 38 38 37 35 28 27 26 27 26 26 27 17 25 21 9 7 21 8 13 35 49 50 40 48 50 50 47 44 41 40 38
27 36 32 22 23 34 26 32 40 28 33 35 36 37 31 11 22 29 38 39 41 42 29 32 30 25 28 25 28 19 15 28 6 8 14 10 3 5 21 32 34 38 52 51 51 48 45 42 40
17 32 29 21 24 29 17 29 37 38 40 39 40 36 29 20 14 26 32 32 32 43 35 30 24 30 26 21 21 26 22 20 15 8 8 1 33 13 2 4 17 15 54 55 51 48 47 43 38
24 17 27 37 30 27 38 38 29 37 35 34 32 28 34 23 13 21 29 35 35 39 39 37 35 30 27 24 20 16 19 16 14 17 11 10 42 58 23 8 8 6 59 54 51 50 50 40 37
12 19 40 55 30 43 47 38 59 20 20 34 40 35 28 30 20 13 16 23 32 29 39 45 39 30 30 28 18 15 15 22 11 8 9 12 25 35 28 20 13 22 49 48 50 49 41 41 41
50 41 21 26 43 50 42 46 34 8 24 37 42 46 30 26 21 16 18 24 30 28 38 48 39 33 32 31 24 23 18 17 18 4 3 1 4 30 22 27 31 19 6 50 45 42 42 39 43
22 43 48 38 48 39 48 32 35 28 26 40 46 46 45 27 21 13 19 22 27 30 37 39 39 33 32 33 25 22 17 12 13 1 1 7 9 16 20 25 36 33 20 35 44 41 38 39 37
78 14 38 67 37 58 63 27 13 21 38 42 47 46 43 38 22 15 12 20 24 29 32 31 34 33 32 27 21 16 15 10 9 5 5 10 14 21 22 20 29 30 24 25 23 40 37 37 39
Wind_Direction
191 176 195 204 196 191 6 50 354 7 345 305 227 181 19 284 191 82 109 119 104 102 104 104 99 107 113 115 133 151 157 154 157 161 170 168 180 188 190 186 188 183 185 173 163 172 156 138 130
217 221 187 200 249 26 359 343 359 357 0 1 260 217 282 231 143 103 100 114 112 101 109 104 102 105 116 124 133 146 159 161 159 164 169 183 199 204 225 225 204 190 189 179 166 153 145 143 136
218 221 223 59 15 7 33 11 7 356 297 242 302 278 274 108 85 103 105 112 102 99 97 99 101 107 117 126 141 151 148 160 165 170 176 190 203 216 228 211 207 202 192 179 160 156 152 151 156
223 219 228 289 42 23 29 8 359 13 343 248 10 5 17 59 81 105 115 112 105 101 94 98 102 107 117 121 130 154 162 164 179 185 197 205 211 210 219 215 206 197 190 177 166 154 153 162 150
205 220 282 8 16 27 14 345 316 347 325 353 14 36 62 50 120 107 113 105 100 102 91 99 107 105 109 115 127 152 165 176 188 198 211 229 228 215 219 215 208 191 192 181 176 190 169 155 138
197 227 282 347 25 8 356 340 353 347 354 29 47 68 59 97 105 114 118 99 106 96 107 110 115 107 107 115 107 203 235 203 201 211 217 218 219 212 210 198 206 209 199 195 191 191 189 147 100
209 25 174 28 2 4 349 326 360 7 7 24 34 49 73 108 112 115 111 103 101 104 109 106 107 105 92 83 68 79 188 200 212 212 214 204 200 190 187 189 201 207 206 196 193 200 156 117 87
224 240 299 302 24 360 11 354 310 339 342 348 338 74 109 112 112 99 103 110 96 108 105 117 120 114 104 92 77 96 144 170 185 208 200 187 177 168 165 174 192 218 187 163 146 142 122 100 94
176 231 339 333 309 13 341 28 332 307 6 328 301 33 110 118 111 103 116 100 113 107 113 106 106 96 42 134 126 51 237 160 155 153 183 189 176 169 127 360 199 158 141 129 113 110 116 99 120
179 195 346 286 335 36 358 8 318 35 19 32 25 56 105 116 117 119 119 113 123 120 112 113 110 95 91 84 79 226 280 205 176 256 223 200 212 232 188 108 110 114 119 135 132 120 104 107 89
187 160 191 182 308 356 30 37 237 178 265 59 86 96 110 117 123 125 123 131 130 130 122 126 119 105 105 83 31 322 287 263 279 245 213 273 221 200 185 166 138 98 110 144 125 89 144 120 110
187 202 197 185 172 164 178 180 81 298 296 46 94 106 116 122 132 132 132 135 132 133 130 137 134 125 124 113 88 59 45 241 246 263 231 232 281 264 220 183 265 26 174 247 306 287 129 190 90
185 154 167 165 145 160 102 117 300 5 4 33 86 103 117 120 128 134 128 133 129 136 136 126 139 131 127 123 118 103 73 119 242 253 236 262 254 241 258 251 279 295 282 296 293 150 226 167 155
127 156 158 124 145 125 151 71 102 37 45 61 90 102 115 119 118 126 125 130 136 142 137 139 143 129 139 138 134 132 128 155 246 259 278 254 235 275 235 256 287 306 288 253 262 141 86 132 128
155 136 109 130 89 108 181 134 113 57 73 80 96 102 111 124 115 117 130 137 136 143 136 136 136 130 142 139 131 137 139 168 182 235 256 252 246 291 239 277 249 288 233 228 245 130 157 118 142
153 157 151 73 144 58 174 184 68 73 101 96 102 110 116 120 124 113 121 133 133 136 132 133 133 137 141 138 120 120 128 165 162 77 155 297 271 266 237 256 278 280 225 319 257 283 98 164 127
107 177 146 96 135 200 148 218 26 75 102 115 122 126 123 126 130 122 118 131 126 126 137 135 131 139 137 131 114 128 107 145 180 116 337 349 279 270 247 269 296 241 241 308 272 286 182 181 101
249 57 153 90 54 105 177 173 140 94 123 139 131 135 149 138 141 132 123 127 125 137 138 152 145 143 140 125 125 114 53 116 216 334 358 306 350 273 260 274 288 242 269 291 279 221 215 205 65
144 70 101 29 359 350 79 194 199 61 119 144 154 155 152 158 145 139 135 126 127 137 139 144 148 144 143 139 137 141 137 132 142 247 12 301 147 266 262 281 255 258 275 276 261 244 170 206 53
35 81 339 13 348 355 32 220 222 143 163 160 167 172 169 163 158 152 146 142 141 140 140 143 149 146 152 152 149 148 148 142 149 124 335 121 236 240 254 267 262 295 269 292 286 247 227 190 183
4 342 336 307 342 27 346 228 131 75 65 32 137 179 181 179 174 167 163 157 151 148 148 144 147 146 154 159 154 152 149 135 151 172 307 145 244 221 258 259 259 282 285 274 298 265 254 254 222
317 319 339 329 337 324 10 309 358 22 15 18 21 114 186 183 173 180 174 169 165 162 153 150 150 149 148 154 146 155 165 170 175 171 169 294 181 179 239 255 267 283 279 282 268 278 263 302 247
318 326 322 327 328 336 335 337 358 9 17 20 1 338 107 173 177 176 175 180 173 170 164 158 154 155 151 153 160 151 172 173 160 166 170 178 292 276 264 265 279 275 276 269 265 264 266 274 262
293 320 317 326 329 321 324 326 331 355 304 343 352 1 10 123 164 170 174 176 177 177 166 165 161 161 161 156 164 156 153 179 119 148 308 156 250 301 284 285 282 283 264 265 259 255 252 255 261
297 298 308 303 304 320 325 324 317 313 338 337 335 355 28 51 140 165 173 171 178 181 172 170 167 168 166 162 162 167 162 161 151 128 136 223 176 175 251 266 289 304 261 257 259 261 250 269 278
279 269 293 315 304 333 319 330 323 327 346 357 356 1 359 32 94 154 167 175 170 172 175 175 175 172 171 171 171 164 158 146 138 151 136 145 185 248 294 309 324 292 251 257 257 262 245 279 280
252 252 284 294 298 304 310 320 268 349 16 0 357 359 1 7 28 95 146 164 166 167 179 180 177 175 176 173 167 163 157 164 133 110 132 160 171 277 283 287 315 305 258 261 259 261 275 276 258
268 273 295 298 294 296 304 302 320 338 349 345 343 339 359 7 33 95 130 151 162 164 170 177 175 175 174 173 167 168 164 164 164 45 86 67 212 287 287 281 283 302 290 256 266 272 274 273 251
262 275 277 285 275 301 290 312 312 277 4 342 331 332 333 2 19 69 130 144 156 159 162 167 171 172 173 175 171 172 171 168 166 266 324 328 299 282 287 284 276 280 288 275 267 271 275 264 271
239 240 247 260 285 277 276 305 66 351 353 344 330 341 337 345 10 60 105 141 152 157 161 163 166 169 171 168 168 170 173 178 180 217 265 298 290 278 275 284 279 279 286 280 295 266 271 266 266